Regional Weather Roundup
Issued by NWS

Home | Current Version | Previous Version | Text Only | Print | Product List | Glossary Off
Versions: 1 2 3 4 5 6 7 8 9 10 11 12 13 14 15 16 17 18 19 20 21 22 23 24 25 26 27 28 29 30 31 32 33 34 35 36 37 38 39 40 41 42 43 44 45 46 47 48 49 50

358
ASUS43 KDMX 222006
RWRIA

WEATHER ROUNDUP FOR IOWA
NATIONAL WEATHER SERVICE DES MOINES IA
300 PM CDT TUE AUG 22 2017

NOTE: "FAIR" INDICATES FEW OR NO CLOUDS BELOW 12,000 FEET WITH NO
SIGNIFICANT WEATHER AND/OR OBSTRUCTIONS TO VISIBILITY.

* - THESE STATIONS ARE NOT NWS STATIONS...THUS NOT UNDER NWS
QUALITY CONTROL.  THEY ALSO DO NOT REPORT WEATHER SUCH
AS PRECIPITATION OR FOG.

IAZ001>003-012>014-020>022-031>034-043>046-222100-
   NORTHWEST IOWA

CITY           SKY/WX    TMP DP  RH WIND       PRES   REMARKS
CARROLL *      SUNNY     73  52  46 N10G20    30.14F
CHEROKEE *     SUNNY     73  49  42 NW14G21   30.16S
DENISON *      SUNNY     72  52  49 NW7G14    30.18S
LE MARS *      MOSUNNY  102 N/A N/A NW9       30.17S
ORANGE CITY *  SUNNY     73  52  46 N12       30.17S
SHELDON *      SUNNY     73  50  43 NW12G17   30.15S
SIOUX CITY     SUNNY     74  51  44 NW12      30.17S
SPENCER        SUNNY     75  48  38 N15       30.15S
STORM LAKE *   SUNNY     72  52  49 NW12G21   30.16S
$$

IAZ055>058-069>071-079>083-090>094-222100-
   SOUTHWEST IOWA

CITY           SKY/WX    TMP DP  RH WIND       PRES   REMARKS
ATLANTIC *     SUNNY     73  50  43 N13       30.15F
AUDUBON *      SUNNY     73  52  46 NW7       30.17S
CLARINDA *     SUNNY     75  54  46 N8G15     30.17S
COUNCIL BLFS * SUNNY     73  54  49 N7        30.17S
CRESTON *      SUNNY     75  48  38 N16       30.15S
HARLAN  *      SUNNY     72  52  49 N10G17    30.19F
LAMONI         SUNNY     77  51  40 NW10G23   30.12R
RED OAK *      SUNNY     75  52  43 NW14      30.16S
SHENANDOAH *   SUNNY     75  52  43 NW8       30.16F
$$

IAZ047>049-059>061-072>074-084-222100-
   CENTRAL IOWA

CITY           SKY/WX    TMP DP  RH WIND       PRES   REMARKS
AMES           SUNNY     74  54  49 N17       30.11S
ANKENY *       SUNNY     75  48  38 NW15      30.12S
BOONE *        SUNNY     73  50  43 NW15      30.12S
CHARITON *     SUNNY     75  52  43 N13G22    30.10S
DES MOINES     MOSUNNY   78  50  37 NW14G22   30.10S
GRINNELL*      SUNNY     71  55  57 NW12G20   30.10S
KNOXVILLE *    SUNNY     75  50  41 N13G18    30.08F
MARSHALLTOWN   SUNNY     74  50  42 NW17G24   30.09S
NEWTON *       SUNNY     73  50  43 N16G23    30.10S
PELLA *        SUNNY     76  51  42 NW14      30.10S
PERRY *          N/A     75  48  39 NW12G17   30.13F
$$

IAZ004>006-015-016-023>025-035-036-222100-
   NORTH CENTRAL IOWA

CITY           SKY/WX    TMP DP  RH WIND       PRES   REMARKS
ALGONA *       MOSUNNY   72  50  46 NW10G17   30.12F
CLARION *      SUNNY     72  52  49 NW15G24   30.12S
ESTHERVILLE    SUNNY     71  49  45 NW17G25   30.12F
FORT DODGE *   SUNNY     73  52  46 NW13      30.12F
MASON CITY     SUNNY     72  50  45 N18G26    30.11S
FOREST CITY *    N/A     72  50  46 NW13G23   30.11S
WEBSTER CITY * SUNNY     73  50  43 NW15G23   30.10F
IOWA FALLS *     N/A     73  51  45 NW14G20   30.12S
$$

IAZ007>011-017>019-026>030-037>042-050>054-066-222100-
   NORTHEAST IOWA

CITY           SKY/WX    TMP DP  RH WIND       PRES   REMARKS
CEDAR RAPIDS   SUNNY     74  53  48 NW18G25   30.04S
CHARLES CITY * MOSUNNY   72  52  49 NW15G22   30.08S
CLINTON *      MOSUNNY   73  56  54 NW15      30.01R
DECORAH *      MOSUNNY   72  52  49 NW16G25   30.04R
DUBUQUE        MOSUNNY   73  53  49 NW16      30.02R
MONTICELLO *   MOSUNNY   75  54  46 NW14G23   30.02S
OELWEIN *      SUNNY     72  54  53 NW16      30.06F
WATERLOO       SUNNY     74  51  44 NW12G20   30.05F
$$

IAZ064-065-067-068-078-222100-
   EAST CENTRAL IOWA

CITY           SKY/WX    TMP DP  RH WIND       PRES   REMARKS
DAVENPORT      MOSUNNY   76  54  46 NW17G25   30.03R
IOWA CITY      SUNNY     78  54  43 NW18G26   30.05S
MT. PLEASANT * MOSUNNY   77  51  40 NW17G23   30.04S
MUSCATINE *    SUNNY     77  55  47 NW17G25   30.02F
QUAD CITIES    MOSUNNY   79  53  40 W15G28    30.00S
$$

IAZ062-063-075>077-085>089-095>099-222100-
   SOUTHEAST IOWA

CITY           SKY/WX    TMP DP  RH WIND       PRES   REMARKS
BURLINGTON     SUNNY     78  58  49 NW15G21   30.02F
FAIRFIELD *    SUNNY     77  54  44 NW15      30.05S
FORT MADISON * SUNNY     77  59  53 NW13G20   30.04S
KEOKUK *       SUNNY     79  54  41 NW15G22   30.03S
OSKALOOSA *      N/A     76  51  41 N15G22    30.08S
CENTERVILLE *    N/A     75  50  41 NW16      30.10S
OTTUMWA        SUNNY     78  53  41 NW23G30   30.07R
WASHINGTON *   SUNNY     75  57  53 NW17      30.06S
$$

ABBREVIATIONS USED IN REMARKS
   TC - TEMPERATURES IN CELSIUS
  WCI - WIND CHILL INDEX
   HX - HEAT INDEX
  VSB - VISIBILITY
$$





USA.gov is the U.S. government's official web portal to all federal, state and local government web resources and services.